SL-12 DEB, 41692

Orbit data source: Space-Track

SL-12 DEB, 41692 is space debris in HEO originally from a launch on Fri, 26 Oct 2007 UTC launched from the Tyuratam Missile And Space Complex (TTMTR). Debris objects in space refer to the collection of defunct objects orbiting the Earth. Examples of debris include non-operational satellites, rocket bodies, and fragments generated from explosions, collisions, or faulty payload assembly.

Loading next visibility...
Identifier
41692, 2007-052Z
Orbit
HEO
Country
Flag of CISCIS
Related business
Manufacturer
RKKE
Mission
Spacecraft
Bus & Motor
Unknown
Mass
Unknown
Launch date (UTC)
2007-10-26 (18 years ago)
Launch vehicle
Unknown
Launch site
Tyuratam Missile And Space Complex (TTMTR)
Object type
Payload
Rocket body
Debris
Shape & HBR
Unknown shape, 0.6 m
Radar Cross Section
Small (<0.1 m²)

Expand to show TLE details & history
Last TLE update: 2 days ago

TLE from 2 days ago
0 SL-12 DEB
1 41692U 07052Z   25339.99911522  .00000669  00000-0  15730-2 0  9995
2 41692  65.4752 294.5326 5609037 250.0349  43.4109  4.41830124 79269
Epoch: 2025-12-05T23:58Z
TLE epoch observation values (Epoch: 2025-12-05T23:58:43.555Z)
Latitude
-0.00001°
Longitude
-140.20208°
Altitude
6,932.177 km
Speed
5.873 km/s
True Right ascension
19h 38m 03s
True Declination
0° 00' 00"
Sunlit
Object was in daylight at epoch
Visualization orbit readout
Latitude
Unknown
Longitude
Unknown
Altitude
Unknown
Speed
Unknown
Apparent Right ascension
Unknown
Apparent Declination
Unknown
Sunlit
N/A
Visualization observer readout
Local Sidereal Time
14:45:24
Azimuth
Unknown
Elevation
Unknown
Doppler factor
Unknown
Orbital elements
Apogee altitude
18,107.322 km
Perigee altitude
509.844 km
Semi-major axis
15,686.72 km
Eccentricity
0.5609
Inclination
65.4752°
RAAN
294.5326°
Arg. of periapsis
250.0349°
True anomaly
110.07075°
Mean anomaly
43.4109°
Eccentric anomaly
74.35813°
Mean motion
1.1047 °/min
Orbital period
325.88 mins
BSTAR
0.001573
Loading maneuver chart data...
Computing Atmospheric mass density...
Loading historical data...
Loading historical data...
Loading historical data...
Loading historical data...
Loading historical data...
Loading historical data...
Loading historical data...

Documentation

Showing up to 5 results
|